User: anonymous   Login
Location: Azul
(36.7830°S, 59.8500°W)
Time: 10:48:46
(UTC-03:00)
Language:

ZACube-1 - Orbit

View from above orbital plane
View from above orbital plane
View from above satellite
View from above satellite

Ground track
Ground track

The orbit data is extracted from the following two-line orbital elements,

1 39417U 13066B   21294.94773479  .00000492  00000-0  67055-4 0  9990
2 39417  97.6072 272.8158 0059963 106.0209 254.7620 14.81632117427801
Epoch (UTC): 21 October 2021 22:44:44
Eccentricity: 0.0059963
inclination: 97.6072°
perigee height: 582 km
apogee height: 666 km
right ascension of ascending node: 272.8158°
argument of perigee: 106.0209°
revolutions per day: 14.81632117
mean anomaly at epoch: 254.7620°
orbit number at epoch: 42780

The dashed part of the orbit path shows where the satellite is in the earth's shadow,  

DLR